Precipitable_Water
0.23 0.18 0.15 0.15 0.16 0.18 0.21 0.21 0.20 0.23 0.21 0.20 0.16 0.16 0.15 0.14 0.16 0.18 0.20 0.21 0.23 0.20 0.24 0.22 0.37 0.38 0.35 0.38 0.41 0.46 0.48 0.48 0.50 0.52 0.58 0.61 0.63 0.67 0.73 0.78 0.80 0.81 0.85 0.96 0.99 1.02 1.08 1.11 1.16 1.18 1.23 1.25 1.28 1.29 1.30 1.28 1.27 1.27 1.28 1.30 1.28 1.35 1.35 1.32 1.31 1.31 1.31 1.29 1.31 1.34 1.34 1.34 1.43 1.49 1.54 1.55 1.60 1.64 1.63 1.66 1.63 1.61 1.64 1.67 1.62 1.60
0.22 0.16 0.15 0.18 0.22 0.20 0.20 0.23 0.24 0.23 0.20 0.18 0.15 0.15 0.14 0.15 0.16 0.18 0.19 0.22 0.24 0.26 0.29 0.31 0.33 0.34 0.37 0.40 0.44 0.47 0.47 0.42 0.47 0.50 0.55 0.59 0.68 0.71 0.76 0.76 0.81 0.86 0.92 0.97 0.97 1.03 1.07 1.11 1.14 1.16 1.18 1.20 1.15 1.18 1.22 1.21 1.23 1.26 1.30 1.27 1.28 1.31 1.32 1.34 1.33 1.32 1.33 1.36 1.37 1.33 1.33 1.38 1.42 1.48 1.48 1.47 1.54 1.57 1.61 1.64 1.67 1.65 1.66 1.65 1.66 1.64
0.16 0.15 0.17 0.18 0.22 0.23 0.23 0.23 0.26 0.21 0.18 0.17 0.16 0.15 0.15 0.16 0.19 0.21 0.21 0.23 0.23 0.26 0.25 0.30 0.31 0.34 0.36 0.42 0.45 0.46 0.44 0.50 0.52 0.53 0.55 0.59 0.62 0.68 0.75 0.76 0.80 0.83 0.85 0.94 1.00 1.04 1.08 1.12 1.11 1.11 1.12 1.14 1.17 1.18 1.19 1.22 1.23 1.24 1.25 1.26 1.27 1.28 1.28 1.31 1.34 1.34 1.33 1.39 1.40 1.37 1.36 1.41 1.42 1.54 1.59 1.58 1.59 1.59 1.58 1.62 1.67 1.68 1.69 1.67 1.70 1.74
0.15 0.16 0.19 0.20 0.24 0.26 0.24 0.22 0.23 0.21 0.19 0.17 0.16 0.15 0.14 0.17 0.17 0.17 0.22 0.25 0.28 0.29 0.28 0.31 0.33 0.35 0.40 0.44 0.44 0.49 0.50 0.52 0.57 0.58 0.61 0.66 0.64 0.64 0.69 0.73 0.77 0.78 0.83 0.91 0.98 1.00 1.05 1.07 1.06 1.03 1.06 1.10 1.14 1.15 1.16 1.18 1.18 1.20 1.21 1.22 1.24 1.24 1.25 1.27 1.32 1.34 1.39 1.40 1.39 1.37 1.38 1.43 1.43 1.43 1.55 1.58 1.60 1.61 1.61 1.60 1.67 1.73 1.72 1.71 1.72 1.71
0.16 0.18 0.23 0.27 0.28 0.24 0.19 0.19 0.20 0.20 0.17 0.19 0.17 0.16 0.15 0.17 0.17 0.19 0.20 0.24 0.29 0.33 0.35 0.33 0.32 0.33 0.41 0.36 0.39 0.49 0.56 0.55 0.57 0.59 0.64 0.70 0.72 0.75 0.77 0.78 0.81 0.80 0.85 0.92 0.96 0.96 0.97 0.97 0.99 1.01 1.05 1.10 1.08 1.09 1.11 1.13 1.13 1.15 1.17 1.20 1.21 1.23 1.24 1.26 1.28 1.29 1.33 1.35 1.32 1.32 1.31 1.33 1.33 1.37 1.39 1.44 1.47 1.57 1.60 1.61 1.64 1.69 1.72 1.72 1.70 1.68
0.20 0.22 0.29 0.25 0.20 0.19 0.19 0.18 0.19 0.20 0.18 0.18 0.19 0.17 0.18 0.19 0.18 0.24 0.25 0.24 0.25 0.27 0.34 0.29 0.21 0.28 0.42 0.42 0.42 0.48 0.50 0.48 0.55 0.56 0.60 0.66 0.71 0.74 0.73 0.77 0.82 0.86 0.92 0.93 0.93 0.95 0.96 0.96 0.96 0.99 1.03 1.05 1.06 1.07 1.11 1.15 1.16 1.16 1.17 1.20 1.22 1.24 1.24 1.24 1.25 1.28 1.30 1.27 1.24 1.21 1.13 1.10 1.12 1.10 1.17 1.21 1.29 1.41 1.49 1.57 1.65 1.67 1.70 1.71 1.71 1.73
0.23 0.31 0.28 0.21 0.18 0.19 0.19 0.18 0.20 0.20 0.19 0.18 0.18 0.22 0.21 0.19 0.20 0.23 0.24 0.23 0.23 0.20 0.28 0.35 0.23 0.24 0.44 0.39 0.43 0.46 0.45 0.45 0.53 0.55 0.60 0.65 0.70 0.73 0.74 0.77 0.80 0.84 0.89 0.95 0.96 0.96 0.94 0.95 0.94 0.96 0.98 1.01 1.02 1.06 1.12 1.14 1.15 1.17 1.19 1.20 1.21 1.20 1.20 1.23 1.23 1.27 1.28 1.24 1.21 1.17 1.14 1.14 1.12 1.07 1.12 1.22 1.29 1.36 1.50 1.59 1.61 1.65 1.69 1.70 1.68 1.69
0.26 0.30 0.23 0.22 0.20 0.19 0.19 0.17 0.20 0.19 0.20 0.18 0.22 0.20 0.20 0.20 0.20 0.22 0.24 0.25 0.25 0.29 0.30 0.27 0.25 0.27 0.30 0.41 0.45 0.47 0.45 0.44 0.47 0.52 0.58 0.63 0.68 0.72 0.76 0.79 0.81 0.84 0.87 0.88 0.89 0.91 0.94 0.95 0.94 0.93 0.97 1.01 1.03 1.09 1.13 1.15 1.18 1.17 1.17 1.19 1.19 1.20 1.20 1.22 1.24 1.24 1.26 1.22 1.21 1.17 1.14 1.12 1.10 1.13 1.15 1.24 1.25 1.34 1.48 1.52 1.58 1.64 1.65 1.66 1.64 1.63
0.29 0.26 0.22 0.21 0.19 0.17 0.17 0.19 0.23 0.22 0.21 0.23 0.24 0.21 0.19 0.19 0.20 0.22 0.22 0.23 0.27 0.27 0.21 0.22 0.26 0.25 0.29 0.41 0.47 0.47 0.40 0.42 0.44 0.50 0.56 0.62 0.67 0.71 0.75 0.78 0.81 0.84 0.86 0.86 0.85 0.86 0.89 0.91 0.94 0.96 0.98 1.04 1.08 1.11 1.12 1.13 1.15 1.18 1.19 1.20 1.20 1.19 1.20 1.22 1.25 1.25 1.27 1.23 1.21 1.21 1.20 1.14 1.19 1.21 1.24 1.29 1.32 1.33 1.44 1.54 1.60 1.60 1.69 1.70 1.64 1.62
0.30 0.27 0.24 0.24 0.20 0.17 0.19 0.22 0.23 0.22 0.22 0.26 0.25 0.23 0.22 0.21 0.22 0.24 0.23 0.24 0.26 0.21 0.19 0.19 0.23 0.21 0.30 0.38 0.40 0.47 0.43 0.39 0.44 0.50 0.55 0.59 0.63 0.66 0.69 0.73 0.78 0.82 0.83 0.86 0.86 0.87 0.89 0.93 0.95 1.00 1.04 1.06 1.09 1.13 1.16 1.17 1.17 1.16 1.17 1.18 1.18 1.16 1.19 1.22 1.25 1.25 1.23 1.22 1.21 1.18 1.19 1.17 1.20 1.23 1.25 1.26 1.26 1.32 1.35 1.44 1.52 1.56 1.58 1.62 1.59 1.57
0.30 0.31 0.30 0.24 0.20 0.22 0.22 0.24 0.23 0.22 0.24 0.26 0.24 0.22 0.21 0.21 0.21 0.24 0.25 0.26 0.24 0.18 0.20 0.20 0.22 0.25 0.26 0.38 0.40 0.39 0.41 0.44 0.48 0.51 0.55 0.58 0.62 0.65 0.69 0.71 0.74 0.77 0.80 0.81 0.84 0.87 0.90 0.95 0.97 1.00 1.00 1.05 1.09 1.12 1.13 1.13 1.14 1.14 1.13 1.15 1.16 1.18 1.21 1.21 1.22 1.21 1.23 1.24 1.24 1.20 1.20 1.19 1.19 1.21 1.22 1.17 1.20 1.20 1.26 1.36 1.46 1.48 1.50 1.54 1.53 1.58
0.32 0.30 0.28 0.27 0.27 0.26 0.26 0.22 0.23 0.25 0.25 0.23 0.21 0.22 0.21 0.20 0.23 0.24 0.25 0.28 0.21 0.17 0.21 0.25 0.21 0.28 0.22 0.39 0.49 0.54 0.54 0.54 0.53 0.48 0.51 0.55 0.59 0.63 0.67 0.70 0.73 0.76 0.78 0.80 0.82 0.85 0.88 0.91 0.95 0.98 0.98 1.02 1.05 1.07 1.07 1.08 1.10 1.10 1.10 1.10 1.10 1.14 1.16 1.19 1.21 1.19 1.17 1.17 1.19 1.21 1.24 1.23 1.24 1.23 1.20 1.20 1.16 1.17 1.25 1.36 1.39 1.44 1.48 1.49 1.52 1.56
0.28 0.26 0.28 0.30 0.31 0.29 0.25 0.21 0.20 0.22 0.23 0.22 0.21 0.21 0.19 0.18 0.19 0.17 0.21 0.19 0.19 0.18 0.25 0.24 0.24 0.22 0.27 0.46 0.51 0.53 0.54 0.58 0.59 0.57 0.57 0.59 0.61 0.65 0.69 0.71 0.73 0.75 0.76 0.77 0.78 0.80 0.83 0.85 0.88 0.90 0.93 0.97 0.98 0.99 1.01 1.03 1.06 1.08 1.08 1.07 1.05 1.07 1.15 1.17 1.20 1.19 1.18 1.18 1.19 1.19 1.19 1.21 1.24 1.24 1.22 1.22 1.19 1.24 1.21 1.25 1.35 1.36 1.37 1.41 1.42 1.45
0.25 0.29 0.28 0.28 0.27 0.28 0.26 0.19 0.20 0.18 0.21 0.21 0.19 0.19 0.19 0.17 0.15 0.15 0.17 0.20 0.19 0.26 0.30 0.25 0.24 0.24 0.46 0.46 0.58 0.56 0.59 0.62 0.62 0.61 0.64 0.65 0.64 0.67 0.70 0.72 0.73 0.76 0.77 0.77 0.78 0.79 0.81 0.82 0.85 0.88 0.90 0.93 0.95 0.98 1.00 1.02 1.02 1.04 1.04 1.04 1.03 1.05 1.12 1.13 1.14 1.14 1.14 1.15 1.18 1.21 1.22 1.23 1.23 1.23 1.25 1.24 1.23 1.24 1.23 1.23 1.22 1.24 1.28 1.34 1.39 1.43
0.18 0.20 0.25 0.26 0.21 0.26 0.26 0.23 0.22 0.19 0.20 0.21 0.22 0.20 0.19 0.19 0.17 0.14 0.16 0.17 0.18 0.21 0.26 0.31 0.22 0.28 0.28 0.39 0.61 0.62 0.65 0.64 0.65 0.65 0.67 0.69 0.69 0.71 0.74 0.75 0.74 0.75 0.75 0.77 0.78 0.79 0.80 0.82 0.85 0.86 0.88 0.90 0.92 0.95 0.97 0.99 1.00 1.01 1.00 1.01 1.01 1.02 1.05 1.06 1.06 1.07 1.07 1.09 1.13 1.15 1.18 1.21 1.25 1.25 1.27 1.25 1.26 1.27 1.26 1.24 1.22 1.24 1.28 1.29 1.36 1.40
0.21 0.21 0.25 0.28 0.28 0.26 0.23 0.25 0.26 0.22 0.20 0.22 0.22 0.22 0.20 0.20 0.23 0.17 0.21 0.20 0.20 0.25 0.22 0.26 0.30 0.41 0.40 0.64 0.65 0.67 0.65 0.64 0.65 0.65 0.67 0.66 0.69 0.70 0.69 0.70 0.71 0.72 0.74 0.75 0.74 0.76 0.78 0.79 0.80 0.80 0.81 0.84 0.87 0.90 0.93 0.94 0.97 0.97 0.98 1.00 1.00 1.00 1.01 1.03 1.03 1.04 1.04 1.04 1.06 1.07 1.08 1.13 1.18 1.22 1.25 1.29 1.30 1.29 1.31 1.30 1.26 1.26 1.31 1.35 1.35 1.38
0.22 0.21 0.26 0.24 0.28 0.26 0.23 0.25 0.24 0.24 0.16 0.19 0.20 0.18 0.20 0.24 0.24 0.23 0.22 0.28 0.29 0.24 0.24 0.32 0.32 0.46 0.60 0.59 0.64 0.63 0.61 0.61 0.63 0.63 0.63 0.64 0.66 0.68 0.66 0.67 0.69 0.71 0.72 0.72 0.72 0.72 0.74 0.76 0.78 0.79 0.80 0.83 0.86 0.87 0.88 0.90 0.92 0.93 0.94 0.94 0.95 0.97 0.98 0.97 0.97 0.98 1.00 1.00 1.01 1.03 1.07 1.11 1.13 1.17 1.18 1.24 1.30 1.33 1.32 1.33 1.35 1.32 1.30 1.30 1.33 1.36
0.20 0.20 0.27 0.24 0.21 0.25 0.25 0.26 0.25 0.22 0.22 0.22 0.17 0.20 0.27 0.28 0.27 0.24 0.19 0.22 0.21 0.19 0.24 0.28 0.27 0.32 0.33 0.28 0.58 0.57 0.54 0.56 0.58 0.59 0.62 0.63 0.65 0.63 0.63 0.66 0.68 0.69 0.71 0.72 0.72 0.73 0.75 0.76 0.77 0.78 0.80 0.81 0.82 0.84 0.86 0.88 0.90 0.91 0.92 0.93 0.93 0.94 0.92 0.94 0.95 0.96 0.98 0.99 1.00 1.02 1.04 1.08 1.13 1.18 1.23 1.27 1.29 1.34 1.34 1.33 1.34 1.35 1.29 1.25 1.30 1.34
0.26 0.21 0.25 0.24 0.23 0.24 0.27 0.27 0.23 0.23 0.24 0.22 0.17 0.23 0.20 0.19 0.21 0.24 0.22 0.17 0.15 0.16 0.22 0.25 0.32 0.31 0.29 0.34 0.46 0.47 0.48 0.50 0.54 0.58 0.59 0.59 0.60 0.61 0.63 0.65 0.68 0.69 0.70 0.70 0.71 0.72 0.73 0.74 0.76 0.77 0.78 0.81 0.83 0.85 0.87 0.88 0.89 0.90 0.91 0.91 0.91 0.89 0.90 0.90 0.93 0.94 0.97 1.00 1.01 1.03 1.03 1.06 1.10 1.18 1.25 1.29 1.31 1.33 1.32 1.32 1.29 1.27 1.26 1.27 1.30 1.32
0.24 0.19 0.20 0.24 0.24 0.24 0.25 0.24 0.18 0.19 0.23 0.24 0.21 0.22 0.21 0.22 0.19 0.20 0.22 0.21 0.17 0.18 0.21 0.22 0.28 0.27 0.36 0.44 0.45 0.45 0.50 0.52 0.54 0.56 0.57 0.59 0.61 0.62 0.63 0.65 0.66 0.67 0.68 0.70 0.71 0.72 0.74 0.74 0.75 0.76 0.77 0.78 0.81 0.82 0.84 0.85 0.86 0.85 0.86 0.86 0.85 0.87 0.88 0.88 0.88 0.89 0.88 0.94 0.99 1.01 1.04 1.07 1.12 1.19 1.27 1.32 1.33 1.32 1.33 1.32 1.31 1.27 1.24 1.24 1.27 1.28
0.18 0.28 0.18 0.21 0.26 0.25 0.20 0.22 0.21 0.20 0.19 0.18 0.19 0.19 0.19 0.22 0.25 0.22 0.23 0.21 0.18 0.20 0.21 0.22 0.21 0.28 0.46 0.55 0.54 0.53 0.54 0.56 0.57 0.56 0.58 0.60 0.61 0.63 0.65 0.66 0.67 0.68 0.68 0.69 0.71 0.72 0.73 0.74 0.74 0.76 0.77 0.79 0.80 0.82 0.83 0.83 0.82 0.83 0.84 0.84 0.84 0.84 0.84 0.84 0.85 0.85 0.86 0.90 0.96 1.00 1.01 1.05 1.11 1.21 1.30 1.34 1.35 1.31 1.35 1.35 1.33 1.28 1.27 1.29 1.28 1.29
0.21 0.23 0.21 0.20 0.22 0.21 0.22 0.24 0.28 0.24 0.22 0.20 0.19 0.18 0.18 0.19 0.20 0.18 0.18 0.23 0.26 0.22 0.19 0.21 0.18 0.32 0.52 0.59 0.57 0.61 0.61 0.61 0.62 0.61 0.60 0.61 0.62 0.64 0.66 0.68 0.69 0.68 0.69 0.70 0.71 0.72 0.72 0.73 0.74 0.76 0.77 0.78 0.78 0.78 0.78 0.80 0.81 0.82 0.83 0.83 0.84 0.84 0.83 0.82 0.83 0.84 0.86 0.90 0.95 0.98 1.01 1.05 1.13 1.24 1.32 1.34 1.36 1.36 1.37 1.36 1.31 1.31 1.30 1.27 1.30 1.32
0.30 0.25 0.25 0.19 0.20 0.22 0.31 0.31 0.33 0.33 0.26 0.23 0.20 0.19 0.19 0.21 0.22 0.21 0.17 0.18 0.23 0.23 0.27 0.23 0.21 0.33 0.58 0.63 0.64 0.65 0.65 0.64 0.63 0.63 0.61 0.61 0.62 0.64 0.67 0.68 0.68 0.69 0.68 0.69 0.70 0.71 0.72 0.73 0.74 0.74 0.75 0.75 0.76 0.78 0.79 0.80 0.80 0.80 0.81 0.82 0.82 0.81 0.81 0.83 0.83 0.85 0.87 0.89 0.92 0.96 1.01 1.05 1.09 1.17 1.28 1.33 1.35 1.35 1.36 1.36 1.35 1.35 1.30 1.28 1.28 1.33
0.29 0.26 0.24 0.22 0.25 0.33 0.34 0.34 0.32 0.32 0.28 0.25 0.23 0.22 0.20 0.19 0.21 0.21 0.20 0.24 0.18 0.23 0.18 0.22 0.20 0.36 0.55 0.67 0.68 0.67 0.66 0.66 0.66 0.64 0.61 0.61 0.63 0.65 0.65 0.66 0.66 0.67 0.69 0.70 0.71 0.72 0.72 0.73 0.74 0.73 0.73 0.74 0.75 0.76 0.78 0.78 0.78 0.79 0.80 0.80 0.80 0.79 0.80 0.82 0.83 0.85 0.86 0.88 0.90 0.95 0.98 1.00 1.05 1.09 1.18 1.27 1.32 1.33 1.33 1.34 1.35 1.36 1.33 1.32 1.33 1.31
0.24 0.29 0.25 0.22 0.24 0.25 0.27 0.29 0.28 0.30 0.29 0.25 0.25 0.29 0.26 0.24 0.23 0.25 0.24 0.26 0.19 0.20 0.18 0.18 0.16 0.30 0.48 0.61 0.63 0.63 0.63 0.62 0.61 0.63 0.63 0.60 0.63 0.63 0.64 0.64 0.65 0.67 0.68 0.69 0.70 0.71 0.72 0.72 0.71 0.72 0.73 0.74 0.74 0.75 0.77 0.77 0.77 0.78 0.78 0.79 0.78 0.78 0.79 0.81 0.84 0.84 0.85 0.86 0.87 0.90 0.93 0.96 0.98 1.01 1.05 1.14 1.25 1.30 1.32 1.33 1.36 1.38 1.35 1.32 1.30 1.33
0.29 0.33 0.30 0.21 0.19 0.18 0.18 0.18 0.20 0.23 0.25 0.34 0.34 0.27 0.26 0.25 0.25 0.23 0.22 0.24 0.20 0.24 0.23 0.20 0.26 0.36 0.46 0.52 0.54 0.56 0.57 0.57 0.60 0.62 0.63 0.64 0.62 0.61 0.61 0.62 0.63 0.65 0.66 0.67 0.69 0.70 0.70 0.71 0.72 0.73 0.73 0.74 0.75 0.75 0.75 0.76 0.77 0.77 0.77 0.78 0.78 0.77 0.78 0.80 0.82 0.82 0.83 0.84 0.85 0.86 0.88 0.91 0.95 0.98 1.00 1.05 1.10 1.17 1.25 1.29 1.32 1.34 1.36 1.35 1.31 1.32
0.32 0.38 0.36 0.34 0.24 0.21 0.24 0.30 0.37 0.30 0.32 0.26 0.28 0.27 0.25 0.29 0.30 0.27 0.24 0.23 0.21 0.24 0.20 0.22 0.30 0.31 0.34 0.41 0.45 0.49 0.53 0.54 0.55 0.59 0.59 0.59 0.60 0.62 0.61 0.62 0.64 0.65 0.66 0.66 0.67 0.69 0.71 0.71 0.71 0.72 0.73 0.74 0.75 0.75 0.75 0.75 0.74 0.75 0.76 0.77 0.78 0.78 0.78 0.79 0.80 0.79 0.79 0.80 0.81 0.82 0.85 0.88 0.91 0.95 0.98 1.01 1.05 1.10 1.16 1.21 1.25 1.27 1.29 1.32 1.30 1.28
0.32 0.32 0.35 0.35 0.35 0.35 0.38 0.36 0.34 0.33 0.30 0.30 0.27 0.27 0.29 0.28 0.30 0.27 0.24 0.21 0.25 0.23 0.18 0.31 0.29 0.26 0.31 0.38 0.44 0.47 0.52 0.55 0.58 0.59 0.60 0.60 0.60 0.59 0.61 0.62 0.63 0.63 0.65 0.66 0.67 0.68 0.68 0.69 0.70 0.71 0.72 0.73 0.74 0.75 0.74 0.74 0.74 0.74 0.75 0.75 0.76 0.78 0.78 0.80 0.79 0.79 0.78 0.78 0.77 0.78 0.80 0.84 0.88 0.90 0.93 0.98 1.03 1.07 1.11 1.16 1.19 1.22 1.24 1.26 1.25 1.24
0.31 0.30 0.36 0.36 0.36 0.40 0.40 0.37 0.36 0.34 0.33 0.34 0.32 0.30 0.30 0.31 0.30 0.27 0.32 0.36 0.28 0.22 0.20 0.31 0.32 0.28 0.36 0.41 0.45 0.49 0.52 0.54 0.56 0.58 0.61 0.62 0.61 0.61 0.62 0.62 0.61 0.61 0.62 0.63 0.65 0.67 0.67 0.67 0.68 0.70 0.72 0.73 0.74 0.73 0.73 0.73 0.73 0.75 0.76 0.77 0.76 0.76 0.77 0.79 0.79 0.78 0.77 0.76 0.75 0.75 0.76 0.79 0.82 0.85 0.87 0.88 0.90 0.93 0.98 1.05 1.13 1.20 1.24 1.23 1.24 1.24
0.34 0.32 0.38 0.39 0.36 0.37 0.39 0.38 0.37 0.32 0.32 0.33 0.33 0.34 0.34 0.32 0.31 0.31 0.31 0.34 0.33 0.32 0.37 0.37 0.37 0.35 0.41 0.44 0.48 0.51 0.56 0.58 0.60 0.62 0.62 0.61 0.60 0.61 0.61 0.60 0.60 0.60 0.60 0.61 0.64 0.65 0.67 0.68 0.68 0.69 0.71 0.72 0.73 0.73 0.72 0.72 0.72 0.74 0.75 0.76 0.76 0.76 0.77 0.79 0.78 0.77 0.76 0.74 0.74 0.75 0.75 0.76 0.77 0.79 0.81 0.83 0.84 0.87 0.91 0.96 1.02 1.08 1.13 1.19 1.25 1.28
0.36 0.31 0.40 0.40 0.34 0.33 0.37 0.38 0.37 0.35 0.33 0.30 0.34 0.36 0.35 0.35 0.34 0.36 0.35 0.35 0.35 0.36 0.37 0.36 0.33 0.32 0.43 0.50 0.51 0.56 0.59 0.61 0.61 0.59 0.59 0.61 0.62 0.62 0.62 0.61 0.60 0.60 0.61 0.62 0.65 0.67 0.68 0.69 0.69 0.70 0.70 0.70 0.71 0.71 0.72 0.72 0.73 0.74 0.74 0.76 0.77 0.77 0.78 0.79 0.77 0.76 0.75 0.74 0.74 0.74 0.74 0.74 0.74 0.75 0.75 0.77 0.80 0.83 0.86 0.90 0.95 1.00 1.06 1.12 1.17 1.21
0.35 0.34 0.41 0.40 0.31 0.31 0.37 0.36 0.36 0.37 0.35 0.33 0.33 0.35 0.36 0.35 0.31 0.33 0.32 0.37 0.35 0.31 0.34 0.33 0.29 0.30 0.42 0.50 0.55 0.57 0.58 0.58 0.58 0.59 0.60 0.61 0.63 0.63 0.61 0.61 0.60 0.61 0.62 0.63 0.64 0.66 0.65 0.66 0.66 0.67 0.68 0.70 0.71 0.71 0.71 0.71 0.72 0.73 0.73 0.75 0.76 0.78 0.79 0.79 0.78 0.77 0.77 0.76 0.76 0.74 0.73 0.72 0.73 0.72 0.73 0.74 0.75 0.79 0.82 0.86 0.89 0.92 0.97 1.02 1.08 1.16
0.32 0.33 0.32 0.33 0.29 0.31 0.38 0.40 0.36 0.35 0.31 0.28 0.31 0.36 0.38 0.38 0.38 0.39 0.40 0.42 0.42 0.40 0.33 0.29 0.31 0.39 0.44 0.49 0.48 0.51 0.55 0.56 0.58 0.59 0.60 0.62 0.63 0.63 0.62 0.61 0.62 0.63 0.64 0.64 0.64 0.63 0.63 0.63 0.64 0.65 0.67 0.69 0.70 0.70 0.71 0.71 0.71 0.71 0.72 0.73 0.75 0.77 0.77 0.77 0.76 0.76 0.76 0.77 0.77 0.76 0.74 0.73 0.71 0.71 0.71 0.72 0.74 0.76 0.79 0.81 0.83 0.87 0.91 0.94 1.01 1.09
0.33 0.33 0.32 0.35 0.27 0.31 0.38 0.38 0.40 0.32 0.22 0.26 0.43 0.48 0.46 0.41 0.40 0.37 0.38 0.42 0.46 0.45 0.41 0.44 0.42 0.45 0.47 0.48 0.48 0.50 0.52 0.55 0.58 0.62 0.65 0.64 0.63 0.63 0.63 0.63 0.63 0.64 0.65 0.64 0.64 0.64 0.65 0.66 0.66 0.66 0.67 0.67 0.68 0.69 0.70 0.70 0.70 0.69 0.70 0.72 0.73 0.72 0.72 0.72 0.73 0.74 0.74 0.74 0.74 0.75 0.75 0.74 0.73 0.71 0.71 0.71 0.73 0.75 0.76 0.78 0.80 0.84 0.87 0.92 0.97 1.01
0.32 0.34 0.34 0.37 0.30 0.30 0.36 0.37 0.29 0.23 0.25 0.44 0.52 0.53 0.52 0.50 0.48 0.43 0.45 0.46 0.47 0.47 0.46 0.44 0.45 0.47 0.49 0.51 0.53 0.55 0.57 0.60 0.63 0.63 0.64 0.66 0.66 0.65 0.64 0.63 0.64 0.65 0.65 0.64 0.64 0.65 0.65 0.65 0.66 0.66 0.67 0.67 0.67 0.69 0.69 0.69 0.69 0.68 0.68 0.69 0.69 0.70 0.70 0.70 0.70 0.71 0.72 0.72 0.74 0.74 0.74 0.74 0.73 0.71 0.71 0.72 0.72 0.73 0.74 0.76 0.78 0.81 0.84 0.87 0.91 0.94
0.30 0.30 0.32 0.34 0.36 0.36 0.32 0.30 0.21 0.24 0.41 0.48 0.50 0.53 0.55 0.53 0.51 0.46 0.43 0.47 0.49 0.48 0.47 0.44 0.47 0.49 0.51 0.53 0.56 0.59 0.60 0.62 0.63 0.64 0.65 0.66 0.67 0.66 0.64 0.64 0.66 0.65 0.64 0.64 0.64 0.65 0.66 0.66 0.66 0.67 0.68 0.68 0.67 0.67 0.68 0.67 0.68 0.66 0.66 0.68 0.67 0.67 0.67 0.68 0.68 0.69 0.70 0.71 0.73 0.74 0.74 0.74 0.73 0.72 0.72 0.73 0.73 0.73 0.72 0.74 0.75 0.76 0.79 0.83 0.88 0.93
0.38 0.33 0.30 0.29 0.35 0.26 0.30 0.30 0.30 0.40 0.38 0.41 0.41 0.44 0.47 0.42 0.43 0.39 0.31 0.40 0.49 0.51 0.50 0.47 0.49 0.51 0.53 0.55 0.58 0.60 0.61 0.62 0.59 0.60 0.65 0.66 0.67 0.68 0.67 0.67 0.67 0.66 0.66 0.67 0.68 0.67 0.69 0.69 0.69 0.70 0.69 0.68 0.68 0.69 0.68 0.68 0.66 0.64 0.63 0.63 0.64 0.65 0.66 0.66 0.65 0.66 0.68 0.70 0.73 0.75 0.75 0.74 0.73 0.73 0.72 0.73 0.73 0.73 0.72 0.72 0.73 0.76 0.79 0.80 0.83 0.87
0.48 0.36 0.35 0.27 0.27 0.33 0.26 0.24 0.27 0.26 0.23 0.29 0.41 0.50 0.55 0.56 0.54 0.51 0.41 0.38 0.50 0.52 0.53 0.50 0.50 0.54 0.55 0.56 0.57 0.59 0.60 0.54 0.49 0.53 0.61 0.64 0.67 0.67 0.69 0.69 0.69 0.70 0.69 0.69 0.70 0.70 0.70 0.71 0.71 0.71 0.70 0.68 0.68 0.68 0.68 0.68 0.66 0.63 0.62 0.61 0.62 0.62 0.62 0.62 0.63 0.66 0.67 0.68 0.71 0.73 0.74 0.74 0.74 0.72 0.71 0.71 0.71 0.72 0.73 0.75 0.75 0.76 0.79 0.78 0.80 0.83
0.45 0.45 0.40 0.33 0.30 0.28 0.27 0.23 0.22 0.21 0.26 0.38 0.42 0.48 0.54 0.57 0.55 0.55 0.41 0.33 0.49 0.53 0.54 0.54 0.52 0.54 0.55 0.55 0.55 0.57 0.53 0.45 0.46 0.51 0.60 0.64 0.66 0.68 0.67 0.68 0.69 0.70 0.70 0.70 0.69 0.68 0.69 0.70 0.70 0.70 0.70 0.69 0.67 0.68 0.69 0.69 0.67 0.64 0.62 0.62 0.61 0.61 0.60 0.61 0.62 0.65 0.66 0.68 0.71 0.73 0.75 0.75 0.74 0.73 0.72 0.71 0.71 0.73 0.73 0.74 0.75 0.77 0.79 0.80 0.82 0.83
0.39 0.38 0.36 0.29 0.30 0.30 0.28 0.25 0.25 0.27 0.28 0.39 0.46 0.50 0.53 0.56 0.55 0.47 0.26 0.29 0.47 0.54 0.55 0.55 0.53 0.53 0.54 0.55 0.57 0.56 0.51 0.44 0.47 0.53 0.61 0.65 0.67 0.68 0.68 0.68 0.68 0.69 0.69 0.70 0.71 0.70 0.70 0.70 0.69 0.69 0.68 0.68 0.68 0.71 0.70 0.69 0.68 0.67 0.65 0.64 0.64 0.62 0.61 0.61 0.63 0.67 0.68 0.70 0.71 0.73 0.74 0.75 0.74 0.74 0.73 0.73 0.73 0.74 0.74 0.75 0.76 0.77 0.78 0.79 0.80 0.81
0.34 0.34 0.35 0.29 0.29 0.30 0.30 0.29 0.29 0.31 0.40 0.48 0.48 0.52 0.55 0.58 0.50 0.30 0.24 0.37 0.52 0.55 0.57 0.57 0.55 0.55 0.57 0.57 0.59 0.53 0.56 0.58 0.59 0.62 0.65 0.67 0.67 0.68 0.69 0.70 0.70 0.69 0.68 0.69 0.69 0.70 0.69 0.69 0.68 0.67 0.68 0.69 0.70 0.71 0.70 0.70 0.68 0.66 0.66 0.66 0.64 0.62 0.62 0.62 0.63 0.65 0.69 0.70 0.71 0.72 0.73 0.73 0.72 0.71 0.73 0.75 0.74 0.75 0.74 0.75 0.74 0.75 0.76 0.77 0.79 0.80
0.31 0.33 0.33 0.33 0.29 0.28 0.29 0.27 0.28 0.32 0.43 0.50 0.53 0.54 0.57 0.47 0.30 0.29 0.49 0.59 0.58 0.57 0.60 0.60 0.58 0.60 0.61 0.60 0.60 0.60 0.60 0.63 0.65 0.67 0.67 0.67 0.67 0.68 0.69 0.70 0.69 0.69 0.69 0.69 0.69 0.68 0.67 0.67 0.67 0.67 0.67 0.68 0.69 0.69 0.68 0.67 0.65 0.64 0.64 0.64 0.63 0.63 0.64 0.62 0.60 0.61 0.66 0.68 0.69 0.70 0.70 0.70 0.70 0.70 0.70 0.72 0.74 0.73 0.74 0.75 0.74 0.73 0.74 0.75 0.75 0.75
0.31 0.26 0.26 0.27 0.30 0.31 0.31 0.27 0.24 0.21 0.38 0.52 0.52 0.49 0.54 0.39 0.40 0.51 0.55 0.58 0.61 0.60 0.60 0.61 0.63 0.63 0.64 0.61 0.62 0.61 0.61 0.63 0.63 0.64 0.66 0.67 0.68 0.68 0.68 0.69 0.68 0.66 0.65 0.64 0.64 0.66 0.65 0.63 0.62 0.62 0.63 0.64 0.65 0.65 0.63 0.62 0.60 0.60 0.61 0.61 0.63 0.65 0.64 0.63 0.61 0.59 0.61 0.65 0.68 0.69 0.69 0.70 0.69 0.69 0.69 0.68 0.69 0.70 0.71 0.73 0.74 0.73 0.72 0.72 0.72 0.72
0.36 0.26 0.26 0.26 0.32 0.23 0.24 0.21 0.23 0.34 0.43 0.52 0.49 0.38 0.47 0.50 0.56 0.58 0.57 0.54 0.60 0.61 0.60 0.62 0.63 0.65 0.65 0.63 0.61 0.62 0.62 0.63 0.64 0.65 0.66 0.67 0.68 0.68 0.68 0.68 0.67 0.65 0.64 0.64 0.64 0.63 0.63 0.61 0.60 0.60 0.61 0.61 0.61 0.61 0.60 0.59 0.56 0.55 0.55 0.57 0.62 0.64 0.65 0.64 0.63 0.61 0.58 0.59 0.62 0.66 0.68 0.68 0.69 0.69 0.68 0.68 0.67 0.66 0.66 0.67 0.68 0.69 0.70 0.70 0.70 0.70
0.35 0.31 0.34 0.25 0.33 0.29 0.27 0.31 0.38 0.44 0.49 0.54 0.54 0.52 0.54 0.57 0.59 0.60 0.59 0.58 0.58 0.61 0.65 0.62 0.62 0.65 0.66 0.65 0.64 0.63 0.62 0.63 0.64 0.66 0.65 0.65 0.65 0.65 0.64 0.64 0.64 0.63 0.62 0.61 0.61 0.62 0.61 0.59 0.58 0.57 0.57 0.58 0.58 0.58 0.57 0.57 0.55 0.53 0.52 0.54 0.57 0.59 0.62 0.64 0.63 0.62 0.59 0.57 0.57 0.57 0.60 0.62 0.63 0.63 0.64 0.64 0.63 0.62 0.62 0.63 0.64 0.63 0.66 0.66 0.66 0.68
0.40 0.40 0.41 0.35 0.32 0.39 0.43 0.44 0.46 0.46 0.47 0.50 0.54 0.56 0.54 0.56 0.59 0.59 0.57 0.55 0.59 0.62 0.64 0.62 0.63 0.64 0.65 0.66 0.63 0.63 0.63 0.63 0.63 0.64 0.64 0.63 0.62 0.63 0.63 0.62 0.62 0.61 0.60 0.60 0.59 0.59 0.58 0.57 0.56 0.54 0.53 0.53 0.54 0.53 0.54 0.53 0.51 0.49 0.48 0.50 0.50 0.51 0.55 0.58 0.59 0.59 0.59 0.58 0.58 0.57 0.56 0.56 0.56 0.57 0.58 0.59 0.60 0.60 0.60 0.60 0.60 0.59 0.60 0.62 0.63 0.64
0.39 0.39 0.37 0.29 0.37 0.29 0.24 0.41 0.41 0.42 0.47 0.49 0.50 0.54 0.56 0.57 0.56 0.58 0.56 0.56 0.58 0.60 0.61 0.62 0.61 0.61 0.61 0.61 0.60 0.60 0.61 0.62 0.60 0.60 0.60 0.60 0.60 0.60 0.59 0.59 0.58 0.57 0.56 0.56 0.56 0.55 0.53 0.50 0.47 0.46 0.46 0.45 0.46 0.46 0.45 0.44 0.44 0.44 0.44 0.43 0.44 0.45 0.48 0.50 0.53 0.54 0.56 0.56 0.56 0.57 0.58 0.56 0.56 0.56 0.56 0.57 0.58 0.59 0.60 0.60 0.60 0.59 0.58 0.58 0.59 0.61
0.31 0.43 0.34 0.32 0.33 0.29 0.30 0.40 0.44 0.48 0.49 0.51 0.51 0.49 0.49 0.53 0.55 0.57 0.57 0.58 0.58 0.60 0.60 0.59 0.59 0.57 0.59 0.58 0.59 0.59 0.58 0.58 0.56 0.56 0.56 0.57 0.57 0.57 0.56 0.55 0.54 0.52 0.51 0.50 0.48 0.46 0.44 0.43 0.41 0.40 0.40 0.39 0.41 0.42 0.41 0.41 0.41 0.41 0.41 0.41 0.42 0.43 0.44 0.44 0.45 0.47 0.49 0.52 0.53 0.54 0.56 0.56 0.56 0.56 0.56 0.56 0.55 0.55 0.56 0.58 0.60 0.59 0.59 0.59 0.59 0.59
0.37 0.39 0.29 0.33 0.30 0.35 0.41 0.43 0.45 0.47 0.48 0.50 0.52 0.52 0.53 0.53 0.53 0.54 0.56 0.56 0.57 0.56 0.57 0.59 0.60 0.59 0.59 0.58 0.58 0.56 0.54 0.55 0.55 0.55 0.53 0.53 0.52 0.51 0.49 0.47 0.45 0.43 0.43 0.42 0.42 0.41 0.39 0.39 0.38 0.37 0.37 0.37 0.38 0.38 0.37 0.37 0.38 0.39 0.39 0.39 0.40 0.41 0.41 0.41 0.42 0.44 0.46 0.48 0.50 0.51 0.52 0.54 0.55 0.55 0.56 0.57 0.57 0.56 0.56 0.56 0.57 0.58 0.58 0.61 0.62 0.61
0.35 0.29 0.36 0.33 0.27 0.27 0.28 0.35 0.42 0.32 0.32 0.41 0.47 0.50 0.52 0.55 0.54 0.54 0.55 0.55 0.55 0.55 0.56 0.56 0.57 0.58 0.58 0.57 0.56 0.55 0.53 0.52 0.51 0.50 0.47 0.45 0.43 0.42 0.42 0.40 0.39 0.39 0.38 0.38 0.38 0.37 0.37 0.36 0.35 0.34 0.34 0.34 0.35 0.34 0.33 0.33 0.34 0.35 0.36 0.36 0.36 0.37 0.37 0.37 0.39 0.40 0.42 0.44 0.46 0.49 0.50 0.50 0.51 0.52 0.53 0.54 0.54 0.56 0.55 0.57 0.58 0.58 0.58 0.58 0.60 0.61
0.33 0.35 0.35 0.29 0.27 0.27 0.36 0.42 0.45 0.45 0.43 0.45 0.47 0.51 0.53 0.55 0.55 0.53 0.53 0.53 0.55 0.56 0.56 0.54 0.52 0.52 0.53 0.53 0.54 0.50 0.47 0.45 0.43 0.43 0.40 0.40 0.40 0.40 0.39 0.37 0.36 0.35 0.35 0.34 0.33 0.32 0.32 0.31 0.31 0.30 0.29 0.30 0.32 0.32 0.32 0.32 0.33 0.33 0.34 0.34 0.34 0.34 0.34 0.34 0.34 0.35 0.36 0.38 0.41 0.44 0.47 0.48 0.48 0.50 0.50 0.50 0.51 0.52 0.53 0.55 0.55 0.56 0.56 0.57 0.57 0.58
Wind_Speed
29 28 28 29 29 28 27 27 24 21 20 22 23 21 21 23 21 19 18 20 22 21 19 19 16 14 12 11 10 10 10 9 10 10 11 13 14 13 13 12 11 10 10 9 8 7 7 7 7 6 6 6 6 7 7 7 7 8 8 8 9 10 10 11 12 13 13 14 15 16 16 17 18 19 20 20 20 20 19 19 20 20 20 21 21 21
30 29 30 30 28 28 28 27 24 21 21 22 22 21 21 22 21 20 19 20 21 20 19 18 16 15 14 12 12 11 11 10 9 10 10 11 13 13 12 11 11 10 11 10 8 8 8 7 7 7 7 6 6 6 7 7 7 8 9 9 9 10 11 12 13 13 14 15 15 16 17 18 19 19 20 21 21 21 21 20 21 22 22 21 22 22
30 30 30 30 29 28 28 27 24 22 22 22 22 21 21 21 20 19 19 20 21 20 20 19 16 15 14 13 13 12 12 11 10 10 10 10 12 13 12 10 10 10 11 11 9 8 7 6 6 7 7 6 6 6 6 7 7 8 8 9 9 10 11 12 13 14 15 15 16 17 18 19 20 20 20 21 21 21 21 21 21 22 23 23 22 22
30 30 31 30 29 28 27 27 26 23 23 22 22 22 22 21 20 19 20 20 20 19 20 19 16 15 16 15 13 13 13 12 11 10 10 10 10 11 12 11 10 10 10 10 9 8 7 6 6 6 6 6 6 6 6 6 7 7 8 8 9 10 11 12 13 14 15 16 16 17 17 18 19 19 20 21 21 22 22 22 22 23 23 23 23 22
29 29 30 30 29 29 28 28 27 25 23 23 23 22 22 23 20 19 21 21 19 19 20 20 16 15 15 15 15 14 14 13 12 11 10 9 9 10 12 11 10 10 10 10 9 7 7 6 6 6 5 5 6 6 6 7 7 8 8 9 10 11 11 12 13 14 15 16 16 17 17 17 18 18 19 20 21 21 22 22 22 23 23 23 23 22
28 28 30 30 29 30 29 28 28 26 23 23 24 22 22 24 20 18 21 21 19 19 21 21 17 16 15 15 15 15 15 13 12 12 10 9 9 9 10 10 9 9 9 9 8 7 6 6 5 5 5 6 6 7 7 8 8 8 9 10 11 11 11 12 12 13 14 15 16 17 17 17 17 18 19 20 21 21 22 22 23 23 23 23 23 23
27 28 30 30 30 31 30 28 29 28 24 22 24 22 20 23 21 20 22 21 19 19 21 21 17 16 16 14 15 16 15 14 13 12 11 9 9 9 9 9 8 9 9 8 7 6 6 6 6 6 6 6 7 7 8 8 9 9 10 10 11 11 12 12 13 13 14 15 16 17 18 18 18 19 19 20 20 21 21 22 21 22 22 22 23 23
28 29 31 31 31 30 29 28 29 29 24 21 24 25 22 21 21 22 22 21 19 17 20 22 18 16 17 15 16 16 15 14 13 12 11 10 9 8 8 8 7 7 8 8 7 7 6 6 6 6 7 7 7 7 8 8 9 10 10 11 11 12 12 13 13 13 14 15 16 17 18 18 19 19 19 19 19 19 20 20 20 21 21 21 22 22
29 30 31 32 31 29 29 28 28 29 24 20 23 25 23 22 21 21 22 20 19 17 20 23 20 17 17 16 17 16 15 14 13 13 12 10 9 8 8 7 7 7 7 7 7 7 7 7 7 7 7 8 8 8 8 9 9 10 11 11 12 12 13 13 14 14 15 16 17 18 18 18 19 19 19 18 18 18 18 18 19 19 19 19 20 20
27 30 31 31 30 28 28 27 28 30 24 19 22 23 22 22 20 20 21 20 19 19 20 24 23 19 16 17 18 17 16 15 14 13 12 11 10 9 8 8 7 7 7 7 7 6 6 7 7 7 7 8 8 8 9 9 10 11 12 12 13 13 14 14 15 15 16 17 17 18 18 19 19 18 18 18 17 16 16 16 16 17 18 18 18 19
25 29 29 29 28 27 26 26 27 29 25 21 23 23 22 22 21 20 20 19 18 19 20 23 24 20 17 17 18 17 16 15 15 15 13 12 10 9 8 8 7 7 7 7 7 6 7 7 7 7 7 7 8 9 9 10 11 12 13 13 13 14 15 15 16 17 17 18 18 19 19 19 19 18 18 18 16 14 14 14 15 16 17 18 18 18
25 28 28 28 28 27 26 25 26 27 25 24 24 24 22 22 21 20 20 20 19 19 19 22 23 21 18 17 17 17 16 15 15 15 14 12 11 9 8 8 7 7 8 7 7 7 7 7 7 7 7 7 8 9 10 11 12 12 13 14 14 15 16 16 17 18 18 19 19 20 20 20 20 19 18 18 17 15 15 14 14 14 15 16 17 17
25 28 28 28 28 28 27 26 26 26 26 26 26 26 24 22 21 22 22 22 19 17 18 20 22 20 17 16 17 17 17 15 15 15 14 12 11 9 8 8 8 7 7 7 7 7 7 7 8 8 8 9 10 10 11 12 12 13 14 15 15 16 17 17 18 18 19 20 20 21 21 21 20 20 19 19 18 17 16 15 14 14 15 15 16 17
25 27 29 28 28 29 29 27 27 27 28 28 27 28 26 22 22 23 22 22 20 16 16 19 22 20 17 16 17 17 17 17 16 14 13 12 11 9 8 8 7 7 7 7 7 7 7 7 8 8 9 10 11 11 12 13 13 14 15 16 16 17 17 18 18 19 20 21 21 21 21 21 21 21 21 20 19 18 17 17 16 16 16 16 16 18
26 27 29 30 28 30 31 28 27 27 27 28 27 27 27 23 22 22 21 21 20 17 16 19 20 20 19 18 18 18 18 17 16 14 13 12 11 10 9 8 7 7 7 7 7 7 7 8 8 8 9 10 11 12 13 13 14 15 16 16 17 17 18 18 19 20 20 21 21 21 21 21 21 21 22 21 21 20 19 19 19 18 18 17 17 18
27 24 28 30 27 29 31 28 27 27 26 26 26 26 27 25 22 19 17 17 18 17 16 18 17 16 17 18 18 19 18 17 16 15 14 12 12 11 9 8 8 7 8 8 8 8 8 8 8 9 9 10 11 12 13 14 14 15 16 16 17 18 18 19 19 19 20 20 20 21 21 21 21 22 22 22 22 21 20 20 20 20 20 19 19 19
25 22 26 29 26 29 31 28 27 28 25 25 27 26 24 23 21 19 16 14 17 18 17 18 17 16 17 18 19 20 19 18 17 15 14 13 12 11 9 8 8 8 8 8 8 8 8 8 9 9 10 11 12 13 14 14 15 15 16 17 17 17 18 18 18 18 19 19 20 20 21 21 21 22 23 23 22 22 21 21 21 21 21 21 21 20
24 20 24 28 25 27 30 28 28 28 25 25 27 26 22 20 21 21 19 18 20 19 17 19 20 20 19 19 20 21 19 19 18 16 15 13 12 10 9 9 9 8 8 8 9 9 8 9 9 10 11 12 12 13 14 14 15 15 15 16 16 17 17 17 18 18 19 19 20 20 20 21 21 22 23 23 23 22 21 21 21 22 22 21 21 20
24 20 22 27 25 25 27 27 27 28 26 25 26 26 24 23 23 23 21 20 22 19 17 21 21 21 21 20 22 23 21 20 19 17 15 14 12 11 10 10 9 9 9 9 9 9 9 9 10 11 11 12 12 12 13 13 13 14 14 15 16 16 17 17 18 19 19 19 20 20 20 20 21 21 22 22 23 22 22 22 22 22 22 22 21 20
24 20 20 25 25 24 26 26 27 27 27 26 25 26 26 24 23 23 21 21 22 20 18 20 21 20 20 20 23 24 22 21 20 17 16 14 13 12 11 11 10 10 10 9 9 9 10 10 11 11 11 11 12 12 12 12 13 13 14 14 15 16 17 18 18 19 19 19 19 20 20 20 21 21 21 21 22 22 22 22 21 21 21 21 21 21
23 20 19 23 24 24 26 26 26 28 28 27 26 27 27 24 22 22 21 20 20 20 19 19 19 19 17 17 22 23 21 21 20 17 16 14 13 12 11 11 11 10 10 9 9 9 10 10 11 11 11 11 11 12 12 12 13 13 14 14 15 16 16 17 18 18 18 18 18 19 20 20 20 19 19 19 20 20 21 21 21 20 20 20 21 22
23 21 20 23 25 25 25 24 24 25 27 27 26 26 28 26 23 22 21 20 20 18 19 19 18 17 15 16 20 21 20 20 19 17 16 14 13 12 11 11 10 10 9 9 9 9 10 10 10 10 10 11 11 12 12 12 13 13 14 14 14 15 16 17 17 17 17 17 18 19 19 19 19 18 17 17 17 18 19 19 20 20 19 20 20 21
21 20 21 23 24 23 22 21 21 22 24 26 24 25 26 26 25 23 20 21 21 17 17 18 17 15 15 16 18 20 19 19 18 17 16 14 13 12 11 11 10 9 9 9 9 10 10 10 10 10 10 10 11 12 12 12 13 13 13 13 13 14 15 16 16 16 16 17 17 18 18 18 17 16 16 15 16 16 17 18 19 19 20 20 20 21
20 20 22 23 22 20 19 19 20 21 23 24 24 24 25 25 25 23 19 20 21 19 18 17 16 15 15 16 17 18 18 18 17 17 15 14 13 12 11 11 10 9 9 9 9 9 10 10 10 10 10 10 11 11 12 12 12 12 12 13 13 13 14 15 15 15 16 16 17 17 17 17 16 15 15 14 14 15 16 17 18 18 19 19 20 20
20 21 22 23 22 20 20 21 21 22 24 23 22 22 23 24 24 21 17 18 20 21 20 18 16 15 17 18 17 17 17 17 16 16 15 14 13 12 12 11 10 9 9 9 9 9 9 9 9 10 10 11 11 11 11 11 11 12 12 13 13 13 14 14 15 15 15 16 16 16 16 16 15 15 15 13 13 14 15 16 17 17 18 18 19 20
19 19 21 23 23 22 23 22 21 23 24 22 21 22 22 22 23 21 18 18 18 19 20 19 15 15 17 18 18 18 17 16 16 15 14 13 12 12 11 11 10 9 9 9 8 8 8 8 9 9 9 10 10 10 11 11 11 11 12 12 13 13 13 14 14 15 15 15 16 16 16 16 15 14 15 14 12 12 14 15 16 16 17 18 19 20
19 17 17 18 19 20 19 18 18 21 23 22 22 23 22 21 20 20 19 18 17 18 18 17 15 16 18 18 18 18 17 17 17 15 14 13 12 11 11 10 10 9 9 9 8 8 8 8 9 9 9 9 10 10 10 10 11 11 11 12 12 13 13 14 14 15 15 15 15 16 16 16 15 14 14 14 13 12 13 14 15 16 17 18 19 20
18 17 16 15 16 16 15 15 17 19 20 20 21 22 21 19 19 20 18 15 16 17 16 16 16 17 18 19 18 18 17 16 16 15 14 13 12 11 10 10 9 9 8 8 8 8 8 8 8 9 9 9 9 9 10 10 10 11 11 12 13 13 13 14 14 15 15 15 15 15 16 16 15 15 15 14 13 13 13 14 15 16 18 19 20 21
18 17 16 16 17 16 15 16 17 18 18 18 19 20 19 18 18 18 16 13 14 15 13 15 16 16 17 18 17 17 17 16 15 14 14 13 12 11 10 10 9 9 8 8 8 8 8 8 9 9 9 9 9 10 10 10 11 11 11 12 13 13 13 14 14 15 15 15 15 15 16 15 15 15 15 15 14 13 13 14 14 16 17 18 19 21
17 17 17 18 18 17 16 17 18 19 18 17 17 17 17 16 15 16 14 13 13 12 11 14 14 13 14 16 15 16 16 15 14 14 13 12 12 11 10 9 9 8 8 8 8 8 8 8 9 9 9 9 10 10 10 11 11 12 12 12 13 13 13 14 14 15 15 15 15 15 15 15 15 15 15 15 15 15 14 14 14 14 15 17 18 20
18 18 18 17 17 16 16 17 17 18 18 17 16 16 16 16 15 14 14 13 12 12 12 13 13 12 13 14 14 15 15 14 14 14 13 12 12 11 10 9 9 8 8 8 8 8 8 8 9 10 10 10 10 11 11 12 12 12 13 13 13 13 13 14 14 14 15 15 15 15 16 16 16 16 16 15 15 15 15 15 14 14 15 16 17 19
19 19 19 17 16 15 16 17 18 18 18 16 15 14 15 16 15 14 14 13 13 14 14 14 14 14 14 14 15 15 14 14 14 13 13 13 13 12 10 10 9 8 8 8 8 8 9 9 10 10 11 11 12 12 12 12 12 13 13 13 13 13 13 14 14 14 15 15 15 16 16 16 17 16 16 16 15 15 15 15 15 15 15 16 17 19
20 19 19 18 15 15 17 18 17 18 18 15 14 14 14 15 15 14 13 13 13 14 14 14 14 15 15 15 15 15 14 14 13 13 13 13 13 12 11 10 9 9 9 9 9 9 9 9 10 11 11 12 12 12 13 13 12 12 13 13 13 14 14 14 14 15 15 15 15 16 16 17 17 17 17 16 16 16 15 15 15 15 16 16 16 17
20 20 19 17 15 16 18 17 17 18 17 14 14 15 14 14 15 14 13 12 12 12 12 12 13 14 15 15 15 15 14 14 13 13 13 13 12 12 11 10 9 9 9 9 9 9 9 9 10 11 11 11 12 12 12 12 12 12 13 13 14 14 14 15 15 15 15 16 16 16 17 17 18 17 17 17 16 16 16 16 15 15 15 15 16 16
20 20 18 16 16 17 17 17 17 17 15 14 15 15 14 14 14 13 11 11 11 11 11 12 12 13 13 13 14 15 14 13 13 12 12 12 12 12 11 10 10 9 9 9 9 9 10 10 11 11 11 11 11 11 11 11 12 13 14 14 14 14 15 15 16 16 16 17 17 17 17 18 18 18 18 17 16 16 16 16 16 15 15 15 15 15
18 19 18 15 15 16 17 17 16 15 14 15 15 15 15 15 15 12 10 10 12 12 13 13 12 12 13 13 14 14 14 14 12 11 11 12 12 12 11 11 10 10 10 10 10 10 11 12 12 12 12 12 11 11 11 12 13 13 14 14 14 15 15 16 16 17 17 18 18 18 18 18 18 18 18 17 17 16 16 16 16 16 16 16 15 15
16 17 17 16 15 15 15 14 13 13 14 15 16 16 16 15 14 13 12 12 13 13 14 14 13 13 14 14 15 15 15 13 12 12 12 12 12 12 11 11 11 10 10 10 11 11 11 12 12 12 12 12 12 12 12 13 13 14 14 14 14 15 16 16 16 17 17 18 18 18 18 18 18 18 18 18 17 17 17 16 16 16 16 16 15 15
14 15 16 15 14 15 15 13 13 14 14 15 17 17 16 14 13 13 13 12 13 14 15 14 14 14 15 15 16 17 15 13 13 13 13 13 12 12 11 11 11 11 11 11 11 11 12 12 12 12 13 13 13 13 14 14 14 14 14 14 15 16 16 17 17 17 18 18 18 18 18 18 18 18 18 18 18 17 17 17 17 16 16 15 15 15
12 12 13 14 14 15 16 15 14 13 12 14 16 17 16 15 15 15 14 13 14 15 15 15 15 15 16 16 16 17 16 14 14 14 14 13 13 13 12 12 12 12 12 12 12 12 12 12 12 13 13 13 14 14 14 15 15 14 15 15 15 16 17 17 18 18 18 18 18 18 18 18 18 18 17 17 17 17 16 16 16 16 15 14 14 14
12 11 12 13 14 14 14 13 12 11 11 14 16 16 15 15 15 16 15 15 16 16 15 15 15 15 16 16 15 15 15 14 14 15 15 14 13 13 13 13 13 12 12 12 12 12 11 11 12 12 13 13 14 15 15 15 15 15 15 15 16 16 17 18 18 18 18 18 18 18 17 17 17 17 17 17 17 16 15 15 15 15 14 13 13 13
11 11 11 12 13 13 13 12 10 10 11 14 15 15 14 14 15 16 14 14 16 16 15 16 16 15 16 16 15 14 13 12 13 13 14 13 13 13 13 13 12 12 12 12 11 11 11 11 11 12 12 13 13 14 14 14 14 14 15 15 16 16 17 17 18 18 17 17 17 17 16 16 16 16 16 16 16 15 14 14 14 14 14 13 13 12
11 11 10 11 11 12 12 11 10 10 11 13 14 14 14 14 14 14 12 13 15 16 15 16 16 15 15 14 14 13 11 11 12 13 13 13 13 12 12 12 11 11 10 11 11 11 11 11 11 11 11 12 12 13 13 13 13 14 15 15 16 16 17 17 17 17 17 17 16 16 16 16 16 16 16 15 15 15 14 14 14 14 13 13 13 12
10 11 11 11 11 11 12 12 11 11 12 14 15 14 13 13 13 12 12 13 14 14 14 15 15 15 15 13 13 12 11 11 12 12 12 12 12 11 11 10 9 9 9 9 9 10 10 10 10 10 10 11 11 12 12 13 13 14 14 15 15 16 16 16 16 16 16 16 16 16 16 16 16 16 15 15 15 15 15 15 14 14 14 13 13 13
10 11 11 11 11 12 12 12 11 11 12 14 14 13 12 12 12 13 13 13 14 14 13 13 13 14 14 13 13 12 12 12 12 12 12 12 11 10 10 9 8 8 8 8 8 8 8 8 9 9 10 10 11 11 12 13 13 14 15 15 16 16 16 16 16 16 16 16 16 16 16 16 16 16 16 15 15 15 15 15 15 14 14 14 14 14
10 10 10 10 11 11 10 11 11 11 12 12 11 11 11 12 12 13 12 12 13 13 13 12 13 13 13 12 12 12 11 11 11 11 11 11 10 10 9 9 8 8 7 7 7 7 7 8 8 9 9 10 11 12 13 13 14 15 15 16 16 17 17 17 17 17 17 17 16 16 16 16 17 17 16 16 15 15 15 15 15 14 14 14 14 14
10 10 10 10 11 10 9 9 10 11 10 10 10 11 12 12 12 13 13 12 13 13 13 13 13 13 12 12 11 11 10 10 10 10 10 10 9 9 8 8 7 7 6 6 6 7 7 7 8 8 9 10 11 12 13 14 14 15 16 16 16 16 17 17 17 17 17 17 17 17 17 16 16 17 16 16 16 15 15 15 15 14 14 14 14 14
10 10 10 11 12 11 10 10 10 10 11 11 11 11 12 12 12 12 13 13 13 13 14 13 13 13 12 12 11 11 11 10 10 9 9 9 8 8 7 6 6 5 5 5 6 6 7 7 8 9 10 11 12 13 13 14 15 15 16 16 16 17 17 17 17 17 17 17 17 17 17 17 16 16 16 16 16 16 16 15 15 15 15 15 15 15
11 11 11 11 11 10 10 11 11 10 11 12 12 12 12 12 11 12 12 12 12 13 13 13 13 13 12 12 12 11 11 10 10 9 9 8 7 7 6 6 5 5 5 5 6 7 7 8 9 9 10 11 12 13 14 14 15 15 16 17 17 17 17 17 17 17 18 18 18 18 17 17 16 16 16 16 16 16 16 16 16 15 15 15 16 15
10 11 11 10 10 10 10 12 12 11 11 12 12 12 12 12 12 12 12 12 12 13 13 13 13 12 12 12 12 11 11 11 10 9 8 8 7 6 6 5 5 4 4 5 5 6 7 7 8 9 10 11 12 13 13 14 15 16 16 17 17 17 17 17 18 18 18 18 18 18 18 17 17 16 16 16 15 15 15 15 15 15 14 15 15 15
11 11 11 11 12 11 12 14 14 12 12 12 12 13 13 12 12 12 13 13 13 13 13 13 13 13 13 12 12 11 11 10 9 9 8 7 6 6 5 4 4 3 3 3 4 5 5 6 7 8 9 10 11 12 13 14 15 15 16 16 17 17 17 17 17 17 17 17 18 18 18 17 17 17 17 16 16 15 14 14 14 14 14 14 14 14
10 11 11 11 11 12 13 15 14 12 12 13 13 13 13 13 13 13 14 14 14 14 14 13 13 13 13 12 12 11 10 10 9 9 8 7 6 5 5 4 3 2 2 2 3 4 5 6 7 8 9 10 10 11 12 13 14 14 15 15 16 16 16 16 16 16 16 17 17 17 17 17 17 17 17 17 17 16 16 15 15 14 14 13 14 14
Wind_Direction
208 210 212 213 211 209 209 209 210 212 207 203 203 205 204 202 204 201 196 197 200 202 203 202 199 199 205 208 210 210 210 211 208 206 207 206 207 209 211 211 211 216 224 234 239 244 250 251 255 260 265 273 276 276 272 267 266 267 269 269 267 267 268 269 271 274 275 273 271 269 267 267 266 265 264 265 263 261 263 261 253 248 246 242 238 238
208 213 213 211 211 208 207 208 208 209 206 203 204 204 202 202 202 200 198 198 201 204 203 201 200 204 211 213 213 213 211 211 208 207 208 209 209 210 212 212 212 218 228 237 241 243 249 251 254 261 265 272 276 274 271 268 268 269 270 270 270 272 273 273 274 276 275 273 272 272 270 270 268 266 266 266 265 261 259 259 254 248 245 242 238 236
210 214 212 209 210 207 205 206 206 206 206 205 204 203 202 201 197 196 198 198 202 207 204 201 202 207 213 216 216 215 212 208 207 207 209 213 215 214 215 214 215 220 226 236 242 244 250 253 254 262 265 269 270 269 270 271 273 273 274 276 277 279 281 281 280 279 279 276 275 276 276 275 272 270 268 266 264 261 258 258 254 248 244 241 238 235
210 213 210 207 206 204 203 204 205 206 206 206 204 203 203 199 197 199 199 198 202 207 203 199 203 208 212 217 215 212 208 204 203 203 206 213 217 214 213 215 219 221 225 235 244 248 253 257 258 263 264 265 266 267 270 273 275 276 277 281 282 284 287 287 285 282 281 280 280 282 281 280 278 275 273 269 265 261 258 257 255 249 243 240 238 236
211 211 206 204 204 203 203 203 205 206 206 206 204 203 203 199 200 200 196 196 201 205 201 196 201 209 213 214 211 208 205 203 203 202 203 209 212 208 206 212 218 222 228 236 244 250 255 258 259 263 265 265 268 270 273 276 278 278 280 283 286 289 291 290 288 285 283 281 282 285 284 283 282 280 277 274 269 265 259 257 255 249 243 240 239 239
211 207 203 203 204 204 204 203 204 205 204 204 204 206 203 198 198 194 191 196 200 203 202 200 204 208 209 210 206 205 203 202 203 201 200 205 207 203 203 209 215 220 227 233 240 248 252 257 259 264 268 269 272 275 276 279 281 282 284 288 290 291 293 293 291 288 285 283 283 284 284 283 283 282 280 277 274 270 263 260 256 248 243 241 239 240
209 204 202 203 203 203 204 204 204 203 205 205 203 204 201 197 197 193 193 199 204 205 202 204 212 209 204 207 204 201 199 198 200 199 196 199 202 201 203 210 216 220 226 231 238 246 253 261 263 267 270 270 273 275 277 281 283 286 289 291 292 292 293 295 295 290 286 285 284 283 283 283 284 284 283 280 277 273 267 262 255 246 242 240 238 239
206 202 202 202 201 202 204 205 203 202 206 205 199 200 201 198 197 197 199 204 206 205 200 205 215 210 202 205 202 197 195 194 197 197 196 195 194 195 198 205 214 221 228 234 241 248 256 263 265 268 268 267 270 272 276 281 285 289 290 291 291 292 293 294 294 292 287 285 285 284 283 284 285 285 285 283 280 275 268 260 252 245 242 239 236 236
203 202 201 200 201 204 205 204 201 201 206 202 196 199 201 201 202 201 204 207 207 205 203 206 212 208 201 201 201 198 196 194 195 197 197 195 192 195 199 204 211 218 227 236 242 249 256 261 265 268 268 268 271 273 276 281 286 290 291 292 291 292 294 294 293 292 289 288 288 286 285 286 287 286 285 284 281 276 268 259 250 243 240 237 233 233
204 204 201 201 203 204 204 203 199 200 205 200 195 198 201 203 205 204 206 207 206 209 208 205 207 208 200 198 202 203 199 197 198 198 198 196 195 200 206 211 216 221 229 237 242 249 256 261 266 269 272 274 276 278 281 284 287 290 292 293 292 290 293 294 292 291 290 291 290 288 285 285 286 285 284 284 281 274 265 257 249 242 239 235 232 233
203 202 202 203 204 203 202 200 198 200 203 198 197 199 200 203 205 207 208 205 204 211 210 202 204 210 203 199 204 206 203 200 200 200 199 197 197 202 211 215 219 225 232 239 244 250 258 262 267 271 274 277 280 282 286 287 289 292 293 293 291 290 292 293 291 291 291 291 290 288 285 284 284 283 283 281 278 270 263 258 251 244 241 237 234 234
198 199 201 202 203 202 198 197 198 200 201 199 199 199 200 201 203 205 205 206 207 210 206 199 203 211 208 203 204 204 203 200 199 199 197 195 196 202 211 215 220 228 236 242 247 254 261 266 271 275 278 280 284 286 289 290 290 292 294 293 292 292 294 293 291 290 290 291 290 288 285 282 280 280 279 277 273 267 262 260 254 246 242 237 235 237
198 199 199 200 202 201 197 196 198 200 201 201 200 199 200 200 201 204 204 206 210 208 202 198 202 210 207 200 199 199 199 197 195 196 195 194 196 201 209 215 223 233 240 245 252 259 266 271 276 280 282 283 286 289 290 291 291 292 293 292 292 294 295 294 291 290 290 290 290 288 285 281 277 276 275 272 269 266 261 258 254 250 246 242 240 242
197 199 199 199 201 201 201 199 199 199 200 201 200 199 202 201 201 204 204 205 207 205 202 199 202 206 203 199 198 197 196 195 193 194 195 196 198 202 210 218 227 236 242 248 257 264 269 273 278 282 284 285 288 290 291 292 293 293 293 292 292 293 294 295 293 291 290 290 289 288 284 281 276 274 272 268 266 263 260 256 252 251 250 247 246 247
195 198 200 200 199 199 202 203 200 199 200 202 202 203 205 206 204 205 205 206 205 201 198 199 204 207 204 200 198 196 195 196 196 198 199 201 204 208 215 224 231 240 246 252 260 267 272 275 280 283 286 288 290 292 293 294 295 295 294 294 294 294 295 295 294 294 293 292 290 288 284 280 277 273 270 267 264 261 258 254 251 250 250 250 249 250
198 201 199 199 200 198 200 202 200 198 199 201 204 206 208 209 205 203 207 206 199 195 197 202 206 206 201 197 195 196 196 196 197 199 201 204 210 214 221 230 239 247 251 255 261 269 274 277 281 285 288 291 292 294 295 295 296 296 296 297 298 298 297 297 297 296 295 294 292 290 286 282 278 274 270 267 263 259 256 253 251 251 251 251 250 252
198 199 194 195 200 199 199 201 199 199 199 200 203 206 208 209 205 201 202 201 197 200 204 204 203 200 200 199 199 199 199 198 199 201 203 207 211 216 224 235 244 250 253 258 263 269 275 279 283 286 289 291 292 294 295 296 297 298 299 300 300 300 299 299 299 298 297 296 295 294 291 287 282 277 272 266 262 259 256 253 251 251 251 251 250 253
195 194 190 193 197 197 199 200 200 202 203 201 203 203 202 206 206 202 203 203 205 209 209 206 202 200 203 205 202 201 201 201 203 204 206 209 214 219 228 240 247 251 254 260 265 269 274 279 284 287 289 292 292 293 295 296 298 299 301 302 302 303 302 302 301 300 300 300 299 297 295 291 287 281 275 268 263 260 257 253 251 251 252 251 250 251
196 193 191 195 195 193 195 198 199 203 206 206 205 203 202 204 204 204 207 208 209 210 207 204 203 205 209 207 202 203 204 203 205 208 210 214 218 223 232 241 248 252 255 260 263 267 273 278 284 287 289 293 294 294 296 297 299 301 304 305 305 304 303 303 302 301 302 302 300 299 298 294 291 286 278 270 264 260 257 254 251 251 252 251 251 250
197 197 192 194 194 191 193 199 200 200 203 205 204 203 206 209 207 207 210 211 210 210 205 203 205 210 213 209 204 204 204 203 206 210 214 217 221 227 235 242 247 251 253 259 263 268 274 279 283 287 290 293 294 295 297 298 302 304 306 307 307 306 304 303 302 301 302 302 301 300 299 298 295 289 281 272 265 260 258 255 252 251 252 252 250 248
195 198 191 189 191 192 195 200 201 199 199 202 203 203 204 206 207 207 210 213 212 210 206 206 208 209 210 209 205 203 204 206 208 209 213 218 222 229 237 241 244 248 252 258 262 267 273 278 283 286 289 291 292 294 297 299 302 304 306 308 308 309 307 306 304 303 303 303 302 302 301 302 301 293 283 274 265 260 257 256 252 251 252 252 249 246
192 195 190 187 191 195 196 198 201 201 200 201 204 204 202 203 203 204 207 211 212 212 209 209 210 207 211 214 208 204 208 210 208 207 211 217 222 228 236 239 241 245 251 256 261 266 272 277 282 286 288 291 293 296 298 300 303 305 308 309 310 311 310 309 307 306 307 306 306 305 304 305 306 298 286 276 266 260 256 255 254 252 253 252 248 246
190 193 190 188 191 194 194 196 200 202 201 202 205 205 202 203 205 206 207 206 209 212 210 211 214 211 215 217 209 206 210 210 208 207 210 216 221 227 232 235 238 242 248 254 260 266 271 276 281 284 288 292 296 300 302 303 305 307 309 310 312 313 313 312 310 310 310 310 310 310 308 308 310 305 294 280 269 263 258 256 255 254 254 253 249 247
189 191 188 187 188 190 192 194 199 201 201 202 203 202 202 203 206 210 210 206 207 211 208 211 216 213 212 211 207 206 208 209 210 209 209 215 221 226 228 230 235 239 246 254 259 265 270 276 280 282 287 293 298 302 305 306 307 308 309 311 313 316 317 316 315 314 314 315 316 317 314 312 311 311 304 288 272 264 261 258 257 256 255 253 250 248
188 190 188 186 186 189 191 192 195 199 200 201 200 199 201 201 201 205 208 206 209 212 210 214 217 213 210 208 205 205 205 207 211 211 211 215 220 225 226 228 232 237 244 253 259 265 270 276 280 283 288 293 298 304 306 308 309 309 309 311 312 315 318 319 319 319 319 319 320 322 322 318 313 312 311 302 281 268 264 261 259 259 255 252 251 249
187 189 190 191 190 190 192 193 194 194 195 198 197 197 198 199 198 200 203 206 210 209 211 217 216 209 209 208 206 206 205 206 210 211 212 216 219 222 225 227 231 236 243 251 257 262 269 276 281 285 289 292 297 303 306 308 311 310 309 311 311 313 317 321 322 323 323 323 324 325 325 323 318 312 311 309 296 279 270 264 261 260 257 254 253 251
185 186 189 192 191 190 189 190 190 189 189 192 192 192 194 197 200 201 203 208 208 204 210 215 207 201 205 206 205 207 206 206 209 211 211 215 218 220 223 227 231 236 243 251 256 261 268 277 282 286 289 292 297 302 305 308 311 311 310 311 311 312 316 319 321 323 325 326 328 327 326 324 321 316 313 311 303 290 279 271 265 263 260 258 256 254
186 185 186 184 181 182 183 182 184 184 183 184 185 186 189 195 201 201 203 206 202 203 210 207 198 198 203 203 203 204 206 207 209 210 211 214 217 217 220 224 228 234 243 252 258 262 268 276 281 285 289 291 295 299 303 306 309 310 310 310 309 310 312 315 318 322 325 327 329 330 327 325 321 318 316 315 310 300 290 280 272 268 265 261 259 257
185 184 185 181 176 177 179 177 178 178 177 178 181 183 187 193 196 197 201 206 205 208 208 199 196 199 200 202 203 202 203 204 205 209 210 212 216 216 216 222 229 236 244 253 260 265 269 275 279 283 286 289 292 297 301 304 306 308 309 309 309 308 310 312 315 320 323 326 329 330 329 325 321 318 316 315 313 308 300 291 282 275 270 265 261 259
186 181 181 178 173 175 178 176 175 176 176 177 179 183 187 190 191 193 199 204 202 202 196 187 188 195 199 202 201 199 200 200 201 208 211 212 215 216 217 224 231 238 246 253 261 266 269 273 277 280 284 288 292 297 299 300 303 304 306 307 308 308 310 311 313 317 320 323 327 329 329 327 322 319 317 315 313 310 306 300 292 283 276 270 264 260
187 181 180 178 172 173 177 177 177 178 177 176 180 186 190 191 193 195 199 202 201 198 192 186 189 200 206 203 198 197 199 199 201 207 210 211 214 214 217 224 230 238 247 253 259 264 268 272 275 278 282 286 291 295 296 297 299 300 302 304 306 308 309 309 311 313 317 319 322 326 329 328 324 321 318 315 313 311 308 305 300 293 286 278 271 265
184 181 182 182 175 175 179 177 175 175 175 176 181 189 194 195 198 201 205 211 210 201 197 199 205 210 209 202 198 200 200 199 203 208 209 212 214 215 218 223 229 237 248 255 259 263 268 272 275 278 280 283 287 290 293 295 295 296 298 301 303 306 308 308 309 310 312 315 317 321 325 327 326 324 321 317 314 311 310 308 304 300 294 287 280 272
183 181 184 184 177 177 181 179 178 180 181 183 190 196 198 197 197 199 204 208 208 205 208 214 213 209 207 204 201 202 203 203 207 210 211 213 216 219 223 226 231 239 249 257 262 266 271 274 277 279 280 281 283 285 288 291 292 293 295 297 301 304 307 309 309 308 310 312 314 317 320 323 325 324 322 320 316 312 311 310 307 304 299 294 288 280
183 183 185 186 181 180 181 182 186 191 191 194 201 203 203 199 196 197 200 204 209 212 215 213 206 203 206 206 203 202 204 206 208 211 214 217 219 222 226 231 235 240 248 256 262 267 273 276 279 282 283 283 284 284 285 286 288 290 292 296 300 303 306 309 308 307 307 309 311 314 316 318 320 321 321 320 317 314 313 312 310 307 303 299 294 287
183 185 186 187 185 183 183 187 193 197 198 201 204 202 200 196 191 190 198 208 212 209 202 196 197 200 201 201 199 198 198 201 205 211 216 221 223 224 228 233 237 240 247 256 262 269 274 277 279 282 285 286 287 287 287 287 289 290 292 295 299 302 304 307 307 307 306 307 310 312 314 316 317 317 318 319 318 317 315 313 312 310 307 303 299 294
183 186 187 186 185 186 190 196 199 199 199 201 202 200 198 195 193 197 207 215 213 207 199 194 194 195 193 193 195 195 195 198 205 215 222 225 227 228 231 234 237 242 250 258 264 270 274 277 279 282 284 286 288 289 291 292 291 291 293 295 298 300 303 305 306 306 306 307 309 310 311 313 315 315 316 317 318 319 318 317 315 313 310 307 302 298
180 184 185 185 190 193 193 194 197 199 202 205 206 206 206 207 211 213 214 217 217 211 203 197 196 196 194 192 192 194 197 203 213 225 229 229 230 231 231 233 237 244 252 259 265 269 272 276 278 280 282 285 289 292 294 294 294 294 295 296 298 301 303 305 306 305 305 306 307 307 308 309 311 312 313 315 317 318 318 317 315 313 311 308 305 301
177 183 186 187 194 197 193 191 198 204 209 210 208 209 212 217 220 215 210 213 217 212 204 200 200 199 196 194 194 198 207 215 222 227 229 229 230 230 230 233 241 249 255 259 264 269 272 275 277 279 281 284 289 292 294 295 296 296 296 298 299 301 303 304 305 305 305 305 305 305 306 306 307 308 310 312 314 315 315 314 313 312 309 307 306 302
175 182 187 187 190 194 195 197 202 207 211 209 205 206 211 215 216 215 216 217 215 210 205 201 199 199 198 197 200 208 218 223 225 226 228 229 230 231 233 240 246 250 254 259 265 270 274 276 277 279 282 285 289 293 294 295 297 297 298 299 300 302 303 305 305 303 303 303 303 303 304 304 304 305 306 308 310 311 311 310 310 309 307 306 305 302
179 184 188 188 188 193 198 200 202 207 210 206 203 204 209 213 215 219 224 221 212 209 207 202 200 200 200 201 208 219 227 227 225 225 226 228 232 236 241 245 247 250 254 261 269 273 276 279 281 282 285 287 289 292 293 294 296 298 299 300 301 303 304 304 303 302 301 302 302 302 304 304 303 304 304 304 305 306 307 306 306 306 305 304 303 301
183 188 192 192 190 194 199 200 200 206 208 204 203 205 209 214 218 224 227 218 207 206 206 202 201 203 205 210 218 226 229 223 218 219 222 228 234 238 242 245 247 251 256 263 269 273 276 281 285 288 289 290 290 292 294 295 297 299 300 301 302 304 304 303 303 302 301 301 302 303 305 305 305 305 304 302 301 302 304 305 305 305 304 303 302 301
189 192 195 196 195 198 202 201 201 207 209 206 206 207 212 219 223 224 221 208 201 204 204 202 204 208 211 215 217 216 213 209 211 217 223 228 233 235 237 241 245 250 257 262 268 272 275 281 286 289 292 292 293 294 295 297 298 299 300 302 303 304 303 303 303 303 303 302 302 303 304 306 306 306 304 302 299 299 300 301 302 304 304 303 303 303
201 202 200 199 202 205 205 205 210 215 210 206 206 210 218 226 222 213 207 201 199 201 202 203 208 211 209 208 206 206 208 211 216 221 224 226 229 231 233 237 243 251 257 262 268 271 274 280 285 288 291 292 294 295 296 298 300 300 301 303 303 302 301 301 302 304 305 304 303 302 303 306 307 307 305 303 300 299 298 298 299 302 304 303 303 303
210 212 208 206 213 215 212 213 220 219 208 206 211 213 215 216 209 202 200 198 197 199 202 205 208 207 203 202 203 206 212 215 218 220 221 222 223 224 228 235 242 250 255 260 266 271 275 280 285 287 290 293 295 296 297 300 302 302 303 303 301 300 301 300 300 302 303 304 304 303 302 303 305 305 304 304 302 300 299 297 297 299 302 303 303 301
212 215 212 210 213 217 216 214 217 214 205 206 211 207 201 202 201 197 195 194 196 200 203 202 201 200 199 199 201 206 210 212 214 216 218 219 220 223 228 233 239 245 251 256 264 271 277 283 286 289 293 295 297 298 299 301 303 304 304 302 301 301 301 301 301 302 302 303 304 304 303 302 303 303 303 302 302 301 299 297 295 296 297 300 302 301
209 213 215 209 204 206 209 206 206 205 200 200 201 198 196 198 198 194 193 194 198 201 201 199 198 199 199 199 201 205 207 206 206 209 211 213 216 219 222 226 234 242 249 257 266 274 281 288 291 295 297 299 300 301 302 304 306 307 306 304 302 302 301 301 302 302 303 303 304 304 304 303 303 303 302 301 301 300 299 298 296 295 295 296 299 299
209 214 212 205 204 209 210 204 201 197 193 192 192 192 193 194 195 195 195 196 198 199 198 197 195 196 198 200 200 200 198 196 197 199 201 203 205 209 214 221 231 240 249 261 272 280 288 294 298 301 304 304 305 305 306 306 308 309 308 306 304 303 303 303 302 301 302 303 302 303 304 304 303 303 302 302 302 300 300 300 298 298 298 296 296 296
208 208 204 201 204 208 203 196 193 190 189 191 191 191 192 191 191 192 191 190 191 192 191 190 190 192 194 193 190 189 188 189 192 193 195 199 201 204 211 218 227 239 254 268 279 287 294 300 303 306 309 310 310 310 309 310 310 310 310 309 307 306 305 304 303 301 301 301 300 300 301 301 301 301 300 301 302 302 301 299 297 298 300 299 297 294
205 205 204 200 198 199 197 193 189 187 189 193 193 192 191 188 186 185 183 181 181 181 182 183 185 187 186 183 181 183 186 188 190 190 193 197 200 203 210 218 228 243 259 273 285 294 300 305 309 311 313 314 314 314 314 314 313 313 312 311 310 308 306 305 304 303 302 301 300 299 299 298 298 297 297 297 298 300 302 301 298 297 298 300 299 296
206 203 202 200 201 204 205 199 195 195 196 195 191 187 186 184 182 179 176 173 174 176 176 177 177 177 178 179 182 185 187 188 189 189 190 192 194 196 203 211 221 239 259 277 292 302 308 312 315 317 318 318 318 319 319 318 317 316 316 315 314 312 310 308 306 305 304 303 301 300 299 298 296 296 296 294 293 292 295 299 302 301 298 297 298 297
212 205 205 210 211 206 200 197 197 196 192 187 183 180 180 180 178 174 171 170 170 171 171 171 172 174 177 179 181 181 181 182 183 183 184 184 185 185 189 194 203 223 254 282 301 312 318 322 325 326 327 326 327 327 327 326 325 324 322 321 320 319 317 315 312 309 308 306 304 301 299 298 297 296 295 294 293 290 288 290 294 297 297 296 296 296